{"data":{"norad_id":63592,"intl_designator":"2025-076Z","name":"STARLINK-33666","alt_names":[],"object_type":"PAYLOAD","status":"ACTIVE","operator":null,"country":"US","launch_date":"2025-04-14","launch_site_code":"AFETR","launch_vehicle":null,"mission":null,"orbit_class":"UNKNOWN","rcs_meters":null,"size_class":null,"mass_kg":null,"dimensions":null,"purposes":["comms"],"wikipedia_slug":null,"has_3d_model":false,"image_url":null,"decayed_at":null,"tle_current":{"epoch":"2026-05-24T16:51:30.392640Z","epoch_age_seconds":104271,"freshness":"FRESH","line1":"1 63592U 25076Z   26144.70243510  .00012328  00000+0  45670-3 0  9994","line2":"2 63592  43.0014 252.5796 0001886 276.0235  84.0402 15.27585260 63450","mean_motion":15.2758526,"eccentricity":0.0001886,"inclination_deg":43.0014,"raan_deg":252.5796,"arg_perigee_deg":276.0235,"mean_anomaly_deg":84.0402,"bstar":0.0004567,"rev_number":6345,"period_min":94.266424120903,"perigee_km":481.73932902536,"apogee_km":484.32736247978,"semimajor_km":6861.1703457526,"source":"CELESTRAK","updated_at":"2026-05-25T13:38:20.050762Z"}}}